Find Starlink 11508

NORAD ID: 62515 Int'l Des: 2025-004 Owner: SPXS Country: US Constellation: starlink operational
LEOCIRCULAR

Current View

Loading 3D Globe...

About Starlink 11508

Starlink 11508 (NORAD 62515) is a starlink constellation satellite (v2 mini d2c) launched Jan 8, 2025 by SPXS of US. It operates in LEO, CIRCULAR orbit with a mass of 960.00 kg.

About Starlink 11508

Description loading...

Upcoming Passes

Passes for default location (London). Set your location on the main map for personalized predictions.

Altitude History

Loading altitude history...

Two-Line Element Set

1 62515U 25004E 26170.37915913 .00160211 00000-0 12243-2 0 9999
2 62515 42.9996 177.5987 0002267 257.3257 102.7357 15.70913178 83202
Epoch: Jun 19, 2026 • Age: 25 hours

Current Status

Altitude 356.4 km
Velocity 7.70 km/s
Sub-Earth Point 27.63°N, 102.65°W
Launch Date Jan 8, 2025
Age 1.4 years
Type internet

Technical Details

Classification Payload
Mass 960.00 kg
Dry Mass 910.00 kg
Total Mass 960.00 kg
Length 0.30 m
Diameter 4.10 m
Span 29.00 m
Shape Box + pan
Manufacturer SPXS
Bus Type Starlink V2MD
Phase Status In Orbit
Owner/State SPXS/US

Most Searched